GFSNIL_700_avort_324.txt.gz
Vorticity
13 12 11 9 8 9 10 11 11 12 7 4 5 6 6 10 13 14 13 12 12 11
12 12 10 8 8 9 11 11 9 14 4 5 5 7 8 15 15 14 15 16 14 12
12 11 9 8 10 10 12 10 8 13 5 5 5 6 14 12 13 16 15 14 16 14
12 10 8 9 10 10 12 10 8 11 7 5 5 6 16 10 14 17 16 15 16 16
11 9 8 9 10 11 11 10 8 10 9 6 6 8 13 9 14 15 15 14 15 15
10 8 8 9 10 11 11 11 8 9 11 8 6 11 12 9 12 15 15 14 14 15
8 7 9 9 10 10 10 12 10 10 10 8 6 14 11 10 12 13 15 14 14 14
7 8 9 9 10 10 11 13 12 10 9 8 7 14 11 10 13 11 13 13 13 12
8 9 9 9 9 10 12 14 15 10 9 8 12 13 10 11 13 12 12 13 13 13
8 8 9 9 9 10 13 17 16 9 9 8 15 12 10 10 14 14 12 14 14 13
8 8 8 8 9 11 14 20 12 8 8 10 15 13 11 14 14 12 15 14 14 13
9 10 9 9 9 11 15 18 8 8 7 12 15 14 9 12 12 17 15 15 14 14
9 9 9 9 10 10 16 15 8 8 7 12 14 15 9 11 13 16 16 16 15 14
9 8 9 9 10 10 17 14 9 8 7 11 15 14 14 10 14 10 11 12 13 14

GFSNIL_700_avort_327.txt.gz
Vorticity
13 14 11 8 7 8 9 9 10 9 9 11 5 6 5 10 12 11 15 15 14 13
15 13 9 8 8 8 9 10 11 9 8 12 6 7 6 15 9 11 15 16 15 14
15 11 8 7 8 8 9 11 11 10 8 12 8 7 7 14 8 12 15 16 15 15
13 9 7 8 8 8 10 11 11 11 9 11 9 7 12 12 9 12 14 15 16 16
11 8 7 9 8 9 10 10 11 12 10 10 8 7 17 10 10 12 12 14 15 14
9 7 8 8 8 9 10 11 11 14 10 9 7 13 14 10 13 12 11 13 13 13
8 9 9 8 9 9 9 11 15 15 9 7 7 15 11 11 12 14 12 12 12 12
9 8 8 9 9 9 10 13 20 10 8 6 14 11 9 10 15 14 12 13 12 13
8 8 9 9 9 10 11 20 13 8 7 9 14 11 9 11 10 16 15 14 14 14
8 8 8 9 9 10 15 19 9 8 7 13 13 12 7 11 12 16 15 14 15 13
8 8 8 9 8 11 17 15 8 8 7 14 13 13 9 12 12 16 15 15 14 14
8 8 9 8 10 12 16 15 9 8 7 13 13 13 13 12 10 12 12 13 14 15
8 9 8 9 10 10 15 16 10 8 7 11 14 13 17 12 11 10 12 13 12 12
9 8 8 9 9 10 16 15 10 8 7 8 15 13 17 11 13 10 11 11 12 14

GFSNIL_700_avort_330.txt.gz
Vorticity
12 13 13 11 9 9 10 9 10 10 10 9 8 12 9 7 11 12 10 11 15 14
13 15 13 10 9 9 9 10 9 11 12 10 10 10 8 9 16 10 11 12 15 15
15 14 11 9 8 9 9 9 10 12 13 12 10 9 8 16 12 11 13 12 14 14
16 12 9 9 9 9 8 9 11 13 16 10 8 7 15 13 11 12 14 12 13 13
14 10 9 9 9 9 9 10 12 17 12 7 6 13 13 11 11 16 15 12 11 12
12 10 9 9 9 8 9 11 19 13 7 5 9 13 12 9 14 14 13 11 11 11
12 9 9 9 8 9 10 16 15 7 6 7 13 12 11 9 14 16 16 11 11 12
9 9 8 8 9 9 13 16 10 8 6 9 13 11 10 11 12 17 14 11 12 13
9 8 9 8 8 10 13 16 10 8 6 11 12 12 12 12 10 15 14 13 13 13
8 9 8 8 9 11 14 16 10 7 6 11 13 13 14 12 9 11 11 13 14 15
9 8 8 10 9 11 15 15 10 7 6 10 14 14 15 12 9 9 12 11 12 14
8 7 10 9 9 11 13 15 10 7 6 7 16 14 15 11 11 11 11 12 15 16
7 9 10 9 9 9 13 14 11 8 7 6 12 15 14 12 13 12 10 10 11 13
8 10 8 9 8 9 12 17 12 9 9 7 7 15 14 13 13 12 9 8 7 8

GFSNIL_700_avort_333.txt.gz
Vorticity
12 12 14 11 10 9 10 10 9 10 11 15 13 9 7 10 15 12 10 12 11 11
11 14 13 9 9 9 10 9 9 11 17 15 9 7 11 14 11 11 12 13 12 12
12 15 10 9 9 9 9 9 10 17 12 8 7 11 13 12 10 13 15 14 12 12
13 12 9 9 9 10 9 10 12 17 8 6 9 14 12 10 11 13 13 13 13 12
13 11 9 9 10 9 9 11 16 10 7 6 13 12 12 10 12 14 14 16 14 11
14 9 8 9 9 9 10 12 16 9 7 7 13 12 12 10 11 13 15 14 12 11
10 8 9 9 9 8 11 14 15 8 6 8 12 11 14 10 10 11 15 14 12 12
9 9 9 9 8 9 12 15 13 7 6 8 12 11 13 11 9 10 13 12 13 13
8 9 9 8 8 11 13 15 11 7 6 7 14 13 12 11 10 10 12 12 13 13
8 9 9 8 9 11 10 16 11 7 6 6 15 14 12 10 10 11 11 12 15 18
9 10 8 9 9 9 11 15 12 9 8 5 14 15 13 11 10 11 9 8 12 16
9 8 9 9 8 8 12 16 12 9 9 7 11 16 13 11 11 13 9 8 9 13
9 8 9 9 8 8 12 16 13 9 7 8 10 15 12 12 13 14 12 13 12 12
8 9 9 8 7 8 10 14 16 11 8 8 10 14 12 11 11 11 13 15 12 13

GFSNIL_700_avort_336.txt.gz
Vorticity
12 15 12 11 10 7 9 9 10 12 15 14 7 5 11 14 10 11 11 14 15 12
13 16 11 10 8 8 9 9 12 13 15 8 5 9 14 11 12 11 14 14 13 11
15 12 11 8 8 9 9 10 14 13 11 6 7 13 12 12 12 13 15 15 12 12
14 11 9 8 8 9 9 11 14 13 8 6 8 14 12 14 13 12 15 14 13 14
14 9 9 8 9 10 9 12 16 11 7 6 11 13 14 13 11 11 11 13 15 14
10 9 8 8 9 9 9 16 14 10 6 5 11 13 15 11 10 10 11 12 13 13
9 9 8 8 9 9 11 15 16 9 6 5 12 13 15 11 11 10 11 12 13 13
9 8 8 9 9 9 11 15 15 8 6 6 11 13 13 12 11 11 10 10 13 16
8 8 8 9 9 9 10 15 16 8 7 7 11 14 12 11 11 11 9 8 11 15
8 8 8 9 9 8 9 16 16 8 8 8 13 14 12 11 11 11 10 10 12 15
9 8 8 9 8 8 8 16 16 9 8 8 15 14 12 11 11 12 14 13 13 15
8 8 8 9 7 7 9 15 17 10 8 7 16 14 12 13 14 16 15 12 14 17
8 8 8 9 7 7 8 13 17 11 9 7 15 15 12 13 15 15 12 14 17 18
8 8 9 8 7 7 7 10 15 13 10 7 12 14 12 13 13 11 12 17 18 17

GFSNIL_700_avort_339.txt.gz
Vorticity
8 13 13 12 10 9 8 8 8 10 15 12 10 6 12 14 12 12 12 13 14 14
13 14 13 11 9 8 8 8 8 13 14 12 6 8 13 12 14 12 11 13 14 13
14 14 11 10 8 8 8 9 10 15 14 8 6 12 11 15 12 11 10 12 12 12
16 11 9 8 9 9 9 9 12 15 13 6 6 13 13 14 12 11 10 12 11 11
12 11 9 9 8 9 8 10 13 15 10 7 4 13 14 13 11 11 11 11 12 13
12 9 9 8 9 8 9 11 14 15 9 6 5 13 15 13 13 11 10 10 9 13
12 9 9 8 8 9 10 12 15 13 7 6 6 13 15 12 12 11 11 9 8 10
10 8 8 8 9 9 9 13 17 9 6 7 9 14 13 11 12 12 11 11 11 11
8 9 8 8 9 8 8 15 19 10 7 7 14 14 11 11 12 13 13 14 12 13
9 8 8 8 8 7 8 16 17 10 8 7 15 15 12 12 14 14 12 12 13 16
9 8 8 8 7 8 8 14 18 11 8 7 13 16 13 15 13 12 14 15 17 17
9 8 8 8 7 7 7 9 18 13 9 7 10 14 15 15 11 11 15 18 18 20
8 8 8 7 8 7 7 7 11 17 13 9 8 12 12 11 8 10 14 18 20 20
8 8 8 8 7 7 7 7 8 15 17 11 10 9 10 12 11 11 11 17 19 19

GFSNIL_700_avort_345.txt.gz
Vorticity
10 10 12 12 10 8 8 8 8 9 12 16 7 6 5 11 13 12 12 11 9 9
3 14 12 10 9 8 8 8 8 11 16 9 6 6 8 13 13 11 10 11 10 9
13 12 11 9 9 8 8 7 9 15 15 7 5 6 12 13 12 11 10 11 11 10
11 11 10 9 8 8 7 7 12 18 11 6 4 11 13 13 12 12 13 13 13 12
12 11 10 8 8 8 8 9 14 16 10 6 4 10 14 12 13 13 12 12 13 13
12 10 9 8 8 8 8 9 13 16 11 7 5 8 13 12 12 9 9 11 14 15
9 10 9 8 8 8 8 8 12 17 14 9 7 7 10 10 8 8 9 11 17 17
9 10 8 8 8 8 8 8 10 15 17 11 8 8 7 9 10 10 9 13 17 17
10 9 8 9 8 8 8 8 9 10 17 15 11 10 8 9 13 11 11 19 18 18
9 9 8 8 9 9 9 9 9 8 11 17 15 12 10 13 13 10 17 18 19 17
9 9 8 9 9 10 9 9 9 8 8 14 17 13 9 15 11 13 19 19 19 15
9 9 9 9 9 9 9 8 8 7 8 12 18 14 9 14 13 15 20 20 16 15
8 8 9 9 9 9 9 8 8 7 8 9 13 17 12 9 14 14 21 19 16 16
8 8 8 9 9 9 9 9 8 8 9 9 9 14 16 8 13 13 20 20 16 17